Time,TemperatureF,DewpointF,PressureIn,WindDirection,WindDirectionDegrees,WindSpeedMPH,WindSpeedGustMPH,Humidity,HourlyPrecipIn,Conditions,Clouds,dailyrainin,SoftwareType,DateUTC
2013-08-07 00:02:00,60.0,59.0,29.84,NW,319,0.0,0.0,97,0.00,,,0.00,,2013-08-07 05:02:00,
2013-08-07 00:11:00,60.0,59.0,29.84,NW,319,0.0,0.0,97,0.00,,,0.00,,2013-08-07 05:11:00,
2013-08-07 00:22:00,60.0,59.0,29.84,NW,319,0.0,0.0,97,0.00,,,0.00,,2013-08-07 05:22:00,
2013-08-07 00:32:00,60.0,59.0,29.84,NW,319,0.0,0.0,97,0.00,,,0.00,,2013-08-07 05:32:00,
2013-08-07 00:43:00,60.0,59.0,29.84,NW,319,0.0,0.0,97,0.00,,,0.00,,2013-08-07 05:43:00,
2013-08-07 00:52:00,60.0,59.0,29.84,NW,319,0.0,0.0,98,0.00,,,0.00,,2013-08-07 05:52:00,
2013-08-07 01:02:00,60.0,59.0,29.84,NW,319,0.0,0.0,98,0.00,,,0.00,,2013-08-07 06:02:00,
2013-08-07 01:11:00,60.0,59.0,29.84,NW,319,0.0,0.0,98,0.00,,,0.00,,2013-08-07 06:11:00,
2013-08-07 01:22:00,60.0,60.0,29.85,NW,319,0.0,0.0,99,0.00,,,0.00,,2013-08-07 06:22:00,
2013-08-07 01:32:00,60.0,60.0,29.85,NW,319,0.0,0.0,99,0.00,,,0.00,,2013-08-07 06:32:00,
2013-08-07 01:43:00,60.0,60.0,29.85,NW,319,0.0,0.0,99,0.00,,,0.00,,2013-08-07 06:43:00,
2013-08-07 01:52:00,60.0,60.0,29.85,NW,319,0.0,1.0,99,0.00,,,0.00,,2013-08-07 06:52:00,
2013-08-07 02:01:00,60.0,60.0,29.85,NW,319,0.0,1.0,99,0.00,,,0.00,,2013-08-07 07:01:00,
2013-08-07 02:12:00,60.0,60.0,29.85,NW,319,0.0,1.0,99,0.00,,,0.00,,2013-08-07 07:12:00,
2013-08-07 02:22:00,60.0,60.0,29.86,NW,319,0.0,1.0,100,0.00,,,0.00,,2013-08-07 07:22:00,
2013-08-07 02:33:00,60.0,60.0,29.86,NW,319,0.0,1.0,100,0.00,,,0.00,,2013-08-07 07:33:00,
2013-08-07 02:43:00,60.0,60.0,29.86,NW,319,0.0,1.0,100,0.00,,,0.00,,2013-08-07 07:43:00,
2013-08-07 02:52:00,61.0,61.0,29.86,NW,318,0.0,0.0,100,0.00,,,0.00,,2013-08-07 07:52:00,
2013-08-07 03:01:00,61.0,61.0,29.86,NW,318,0.0,0.0,100,0.00,,,0.00,,2013-08-07 08:01:00,
2013-08-07 03:11:00,61.0,61.0,29.86,NW,318,0.0,0.0,100,0.00,,,0.00,,2013-08-07 08:11:00,
2013-08-07 03:22:00,61.0,61.0,29.87,NW,318,0.0,0.0,100,0.00,,,0.00,,2013-08-07 08:22:00,
2013-08-07 03:32:00,61.0,61.0,29.87,NW,318,0.0,0.0,100,0.00,,,0.00,,2013-08-07 08:32:00,
2013-08-07 03:44:00,61.0,61.0,29.87,NW,318,0.0,0.0,100,0.00,,,0.00,,2013-08-07 08:44:00,
2013-08-07 03:53:00,60.0,60.0,29.88,NW,318,0.0,0.0,100,0.00,,,0.00,,2013-08-07 08:53:00,
2013-08-07 04:02:00,60.0,60.0,29.88,NW,318,0.0,0.0,100,0.00,,,0.00,,2013-08-07 09:02:00,
2013-08-07 04:11:00,60.0,60.0,29.88,NW,318,0.0,0.0,100,0.00,,,0.00,,2013-08-07 09:11:00,
2013-08-07 04:22:00,60.0,60.0,29.89,NW,319,0.0,0.0,100,0.00,,,0.00,,2013-08-07 09:22:00,
2013-08-07 04:32:00,60.0,60.0,29.89,NW,319,0.0,0.0,100,0.00,,,0.00,,2013-08-07 09:32:00,
2013-08-07 04:43:00,60.0,60.0,29.89,NW,319,0.0,0.0,100,0.00,,,0.00,,2013-08-07 09:43:00,
2013-08-07 04:54:00,60.0,60.0,29.90,NW,319,0.0,0.0,100,0.00,,,0.00,,2013-08-07 09:54:00,
2013-08-07 05:01:00,60.0,60.0,29.90,NW,319,0.0,0.0,100,0.00,,,0.00,,2013-08-07 10:01:00,
2013-08-07 05:11:00,60.0,60.0,29.90,NW,319,0.0,0.0,100,0.00,,,0.00,,2013-08-07 10:11:00,
2013-08-07 05:22:00,59.0,59.0,29.90,NW,318,0.0,0.0,100,0.00,,,0.00,,2013-08-07 10:22:00,
2013-08-07 05:32:00,59.0,59.0,29.90,NW,318,0.0,0.0,100,0.00,,,0.00,,2013-08-07 10:32:00,
2013-08-07 05:43:00,59.0,59.0,29.90,NW,318,0.0,0.0,100,0.00,,,0.00,,2013-08-07 10:43:00,
2013-08-07 05:52:00,59.0,59.0,29.91,NW,318,0.0,1.0,100,0.00,,,0.00,,2013-08-07 10:52:00,
2013-08-07 06:01:00,59.0,59.0,29.91,NW,318,0.0,1.0,100,0.00,,,0.00,,2013-08-07 11:01:00,
2013-08-07 06:11:00,59.0,59.0,29.91,NW,318,0.0,1.0,100,0.00,,,0.00,,2013-08-07 11:11:00,
2013-08-07 06:22:00,59.0,59.0,29.92,NW,319,0.0,1.0,100,0.00,,,0.00,,2013-08-07 11:22:00,
2013-08-07 06:32:00,59.0,59.0,29.92,NW,319,0.0,1.0,100,0.00,,,0.00,,2013-08-07 11:32:00,
2013-08-07 06:43:00,59.0,59.0,29.92,NW,319,0.0,1.0,100,0.00,,,0.00,,2013-08-07 11:43:00,
2013-08-07 06:53:00,59.0,59.0,29.93,North,1,1.0,13.0,100,0.00,,,0.00,,2013-08-07 11:53:00,
2013-08-07 07:02:00,59.0,59.0,29.93,North,1,1.0,13.0,100,0.00,,,0.00,,2013-08-07 12:02:00,
2013-08-07 07:11:00,59.0,59.0,29.93,North,1,1.0,13.0,100,0.00,,,0.00,,2013-08-07 12:11:00,
2013-08-07 07:22:00,59.0,59.0,29.94,North,358,0.0,1.0,100,0.00,,,0.00,,2013-08-07 12:22:00,
2013-08-07 07:32:00,59.0,59.0,29.94,North,358,0.0,1.0,100,0.00,,,0.00,,2013-08-07 12:32:00,
2013-08-07 07:43:00,59.0,59.0,29.94,North,358,0.0,1.0,100,0.00,,,0.00,,2013-08-07 12:43:00,
2013-08-07 07:52:00,59.0,59.0,29.96,North,350,0.0,1.0,100,0.00,,,0.00,,2013-08-07 12:52:00,
2013-08-07 08:02:00,59.0,59.0,29.96,North,350,0.0,1.0,100,0.00,,,0.00,,2013-08-07 13:02:00,
2013-08-07 08:11:00,59.0,59.0,29.96,North,350,0.0,1.0,100,0.00,,,0.00,,2013-08-07 13:11:00,
2013-08-07 08:22:00,60.0,59.0,29.97,North,0,2.0,8.0,97,0.00,,,0.00,,2013-08-07 13:22:00,
2013-08-07 08:32:00,60.0,59.0,29.97,North,0,2.0,8.0,97,0.00,,,0.00,,2013-08-07 13:32:00,
2013-08-07 08:44:00,60.0,59.0,29.97,North,0,2.0,8.0,97,0.00,,,0.00,,2013-08-07 13:44:00,
2013-08-07 08:53:00,60.0,58.0,29.98,North,349,0.0,8.0,93,0.00,,,0.00,,2013-08-07 13:53:00,
2013-08-07 09:02:00,60.0,58.0,29.98,North,349,0.0,8.0,93,0.00,,,0.00,,2013-08-07 14:02:00,
2013-08-07 09:12:00,60.0,58.0,29.98,North,349,0.0,8.0,93,0.00,,,0.00,,2013-08-07 14:12:00,
2013-08-07 09:22:00,60.0,57.0,29.99,NNW,346,0.0,9.0,90,0.00,,,0.00,,2013-08-07 14:22:00,
2013-08-07 09:33:00,60.0,57.0,29.99,NNW,346,0.0,9.0,90,0.00,,,0.00,,2013-08-07 14:33:00,
2013-08-07 09:43:00,60.0,57.0,29.99,NNW,346,0.0,9.0,90,0.00,,,0.00,,2013-08-07 14:43:00,
2013-08-07 09:52:00,62.0,57.0,30.00,North,8,0.0,6.0,83,0.00,,,0.00,,2013-08-07 14:52:00,
2013-08-07 10:02:00,62.0,57.0,30.00,North,8,0.0,6.0,83,0.00,,,0.00,,2013-08-07 15:02:00,
2013-08-07 10:12:00,62.0,57.0,30.00,North,8,0.0,6.0,83,0.00,,,0.00,,2013-08-07 15:12:00,
2013-08-07 10:22:00,64.0,57.0,30.01,North,11,2.0,9.0,77,0.00,,,0.00,,2013-08-07 15:22:00,
2013-08-07 10:33:00,64.0,57.0,30.01,North,11,2.0,9.0,77,0.00,,,0.00,,2013-08-07 15:33:00,
2013-08-07 10:43:00,64.0,57.0,30.01,North,11,2.0,9.0,77,0.00,,,0.00,,2013-08-07 15:43:00,
2013-08-07 10:53:00,64.0,54.0,30.01,North,10,0.0,6.0,70,0.00,,,0.00,,2013-08-07 15:53:00,
2013-08-07 11:02:00,64.0,54.0,30.01,North,10,0.0,6.0,70,0.00,,,0.00,,2013-08-07 16:02:00,
2013-08-07 11:11:00,64.0,54.0,30.01,North,10,0.0,6.0,70,0.00,,,0.00,,2013-08-07 16:11:00,
2013-08-07 11:22:00,66.0,54.0,30.03,North,11,0.0,6.0,65,0.00,,,0.00,,2013-08-07 16:22:00,
2013-08-07 11:33:00,66.0,54.0,30.03,North,11,0.0,6.0,65,0.00,,,0.00,,2013-08-07 16:33:00,
2013-08-07 11:43:00,66.0,54.0,30.03,North,11,0.0,6.0,65,0.00,,,0.00,,2013-08-07 16:43:00,
2013-08-07 11:53:00,67.0,51.0,30.03,North,10,1.0,14.0,56,0.00,,,0.00,,2013-08-07 16:53:00,
2013-08-07 12:01:00,67.0,51.0,30.03,North,10,1.0,14.0,56,0.00,,,0.00,,2013-08-07 17:01:00,
2013-08-07 12:11:00,67.0,51.0,30.03,North,10,1.0,14.0,56,0.00,,,0.00,,2013-08-07 17:11:00,
2013-08-07 12:22:00,68.0,51.0,30.04,North,10,1.0,9.0,54,0.00,,,0.00,,2013-08-07 17:22:00,
2013-08-07 12:33:00,68.0,51.0,30.04,North,10,1.0,9.0,54,0.00,,,0.00,,2013-08-07 17:33:00,
2013-08-07 12:43:00,68.0,51.0,30.04,North,10,1.0,9.0,54,0.00,,,0.00,,2013-08-07 17:43:00,
2013-08-07 12:52:00,69.0,49.0,30.04,NNE,12,1.0,8.0,49,0.00,,,0.00,,2013-08-07 17:52:00,
2013-08-07 13:02:00,69.0,49.0,30.04,NNE,12,1.0,8.0,49,0.00,,,0.00,,2013-08-07 18:02:00,
2013-08-07 13:11:00,69.0,49.0,30.04,NNE,12,1.0,8.0,49,0.00,,,0.00,,2013-08-07 18:11:00,
2013-08-07 13:22:00,69.0,48.0,30.04,NNE,12,1.0,5.0,48,0.00,,,0.00,,2013-08-07 18:22:00,
2013-08-07 13:32:00,69.0,48.0,30.04,NNE,12,1.0,5.0,48,0.00,,,0.00,,2013-08-07 18:32:00,
2013-08-07 13:43:00,69.0,48.0,30.04,NNE,12,1.0,5.0,48,0.00,,,0.00,,2013-08-07 18:43:00,
2013-08-07 13:52:00,70.0,49.0,30.04,North,11,0.0,6.0,48,0.00,,,0.00,,2013-08-07 18:52:00,
2013-08-07 14:01:00,70.0,49.0,30.04,North,11,0.0,6.0,48,0.00,,,0.00,,2013-08-07 19:01:00,
2013-08-07 14:11:00,70.0,49.0,30.04,North,11,0.0,6.0,48,0.00,,,0.00,,2013-08-07 19:11:00,
2013-08-07 14:22:00,70.0,47.0,30.03,North,11,3.0,10.0,44,0.00,,,0.00,,2013-08-07 19:22:00,
2013-08-07 14:32:00,70.0,47.0,30.03,North,11,3.0,10.0,44,0.00,,,0.00,,2013-08-07 19:32:00,
2013-08-07 14:44:00,70.0,47.0,30.03,North,11,3.0,10.0,44,0.00,,,0.00,,2013-08-07 19:44:00,
2013-08-07 14:52:00,71.0,47.0,30.03,North,11,0.0,4.0,42,0.00,,,0.00,,2013-08-07 19:52:00,
2013-08-07 15:02:00,71.0,47.0,30.03,North,11,0.0,4.0,42,0.00,,,0.00,,2013-08-07 20:02:00,
2013-08-07 15:11:00,71.0,47.0,30.03,North,11,0.0,4.0,42,0.00,,,0.00,,2013-08-07 20:11:00,
2013-08-07 15:22:00,71.0,47.0,30.03,North,11,0.0,9.0,42,0.00,,,0.00,,2013-08-07 20:22:00,
2013-08-07 15:32:00,71.0,47.0,30.03,North,11,0.0,9.0,42,0.00,,,0.00,,2013-08-07 20:32:00,
2013-08-07 15:43:00,71.0,47.0,30.03,North,11,0.0,9.0,42,0.00,,,0.00,,2013-08-07 20:43:00,
2013-08-07 15:52:00,72.0,47.0,30.03,North,10,0.0,8.0,41,0.00,,,0.00,,2013-08-07 20:52:00,
2013-08-07 16:01:00,72.0,47.0,30.03,North,10,0.0,8.0,41,0.00,,,0.00,,2013-08-07 21:01:00,
2013-08-07 16:11:00,72.0,47.0,30.03,North,10,0.0,8.0,41,0.00,,,0.00,,2013-08-07 21:11:00,
2013-08-07 16:22:00,73.0,47.0,30.03,North,358,0.0,7.0,39,0.00,,,0.00,,2013-08-07 21:22:00,
2013-08-07 16:32:00,73.0,47.0,30.03,North,358,0.0,7.0,39,0.00,,,0.00,,2013-08-07 21:32:00,
2013-08-07 16:43:00,73.0,47.0,30.03,North,358,0.0,7.0,39,0.00,,,0.00,,2013-08-07 21:43:00,
2013-08-07 16:52:00,73.0,47.0,30.03,NW,315,0.0,10.0,40,0.00,,,0.00,,2013-08-07 21:52:00,
2013-08-07 17:01:00,73.0,47.0,30.03,NW,315,0.0,10.0,40,0.00,,,0.00,,2013-08-07 22:01:00,
2013-08-07 17:12:00,73.0,47.0,30.03,NW,315,0.0,10.0,40,0.00,,,0.00,,2013-08-07 22:12:00,
2013-08-07 17:22:00,73.0,46.0,30.03,North,359,0.0,7.0,38,0.00,,,0.00,,2013-08-07 22:22:00,
2013-08-07 17:32:00,73.0,46.0,30.03,North,359,0.0,7.0,38,0.00,,,0.00,,2013-08-07 22:32:00,
2013-08-07 17:43:00,73.0,46.0,30.03,North,359,0.0,7.0,38,0.00,,,0.00,,2013-08-07 22:43:00,
2013-08-07 17:52:00,73.0,48.0,30.02,NW,317,1.0,4.0,41,0.00,,,0.00,,2013-08-07 22:52:00,
2013-08-07 18:01:00,73.0,48.0,30.02,NW,317,1.0,4.0,41,0.00,,,0.00,,2013-08-07 23:01:00,
2013-08-07 18:11:00,73.0,48.0,30.02,NW,317,1.0,4.0,41,0.00,,,0.00,,2013-08-07 23:11:00,
2013-08-07 18:22:00,73.0,48.0,30.02,NW,326,0.0,5.0,41,0.00,,,0.00,,2013-08-07 23:22:00,
2013-08-07 18:32:00,73.0,48.0,30.02,NW,326,0.0,5.0,41,0.00,,,0.00,,2013-08-07 23:32:00,
2013-08-07 18:43:00,73.0,48.0,30.02,NW,326,0.0,5.0,41,0.00,,,0.00,,2013-08-07 23:43:00,
2013-08-07 18:52:00,73.0,49.0,30.02,NNW,348,0.0,1.0,42,0.00,,,0.00,,2013-08-07 23:52:00,
2013-08-07 19:01:00,73.0,49.0,30.02,NNW,348,0.0,1.0,42,0.00,,,0.00,,2013-08-08 00:01:00,
2013-08-07 19:11:00,73.0,49.0,30.02,NNW,348,0.0,1.0,42,0.00,,,0.00,,2013-08-08 00:11:00,
2013-08-07 19:22:00,72.0,48.0,30.02,North,356,0.0,6.0,43,0.00,,,0.00,,2013-08-08 00:22:00,
2013-08-07 19:32:00,72.0,48.0,30.02,North,356,0.0,6.0,43,0.00,,,0.00,,2013-08-08 00:32:00,
2013-08-07 19:43:00,72.0,48.0,30.02,North,356,0.0,6.0,43,0.00,,,0.00,,2013-08-08 00:43:00,
2013-08-07 19:52:00,72.0,49.0,30.03,North,356,0.0,0.0,45,0.00,,,0.00,,2013-08-08 00:52:00,
2013-08-07 20:02:00,72.0,49.0,30.03,North,356,0.0,0.0,45,0.00,,,0.00,,2013-08-08 01:02:00,
2013-08-07 20:11:00,72.0,49.0,30.03,North,356,0.0,0.0,45,0.00,,,0.00,,2013-08-08 01:11:00,
2013-08-07 20:22:00,72.0,49.0,30.03,North,356,0.0,0.0,45,0.00,,,0.00,,2013-08-08 01:22:00,
2013-08-07 20:32:00,71.0,51.0,30.03,North,356,0.0,0.0,49,0.00,,,0.00,,2013-08-08 01:32:00,
2013-08-07 20:43:00,71.0,51.0,30.03,North,356,0.0,0.0,49,0.00,,,0.00,,2013-08-08 01:43:00,
2013-08-07 20:52:00,71.0,51.0,30.03,North,356,0.0,0.0,49,0.00,,,0.00,,2013-08-08 01:52:00,
2013-08-07 21:02:00,71.0,51.0,30.03,North,356,0.0,0.0,49,0.00,,,0.00,,2013-08-08 02:02:00,
2013-08-07 21:11:00,71.0,51.0,30.03,North,356,0.0,0.0,49,0.00,,,0.00,,2013-08-08 02:11:00,
2013-08-07 21:22:00,66.0,53.0,30.05,North,356,0.0,0.0,63,0.00,,,0.00,,2013-08-08 02:22:00,
2013-08-07 21:32:00,66.0,53.0,30.05,North,356,0.0,0.0,63,0.00,,,0.00,,2013-08-08 02:32:00,
2013-08-07 21:43:00,66.0,53.0,30.05,North,356,0.0,0.0,63,0.00,,,0.00,,2013-08-08 02:43:00,
2013-08-07 21:52:00,65.0,54.0,30.06,North,356,0.0,0.0,68,0.00,,,0.00,,2013-08-08 02:52:00,
2013-08-07 22:01:00,65.0,54.0,30.06,North,356,0.0,0.0,68,0.00,,,0.00,,2013-08-08 03:01:00,
2013-08-07 22:12:00,65.0,54.0,30.06,North,356,0.0,0.0,68,0.00,,,0.00,,2013-08-08 03:12:00,
2013-08-07 22:22:00,63.0,54.0,30.06,North,356,0.0,0.0,73,0.00,,,0.00,,2013-08-08 03:22:00,
2013-08-07 22:32:00,63.0,54.0,30.06,North,356,0.0,0.0,73,0.00,,,0.00,,2013-08-08 03:32:00,
2013-08-07 22:43:00,63.0,54.0,30.06,North,356,0.0,0.0,73,0.00,,,0.00,,2013-08-08 03:43:00,
2013-08-07 22:52:00,62.0,55.0,30.08,North,356,0.0,0.0,79,0.00,,,0.00,,2013-08-08 03:52:00,
2013-08-07 23:01:00,62.0,55.0,30.08,North,356,0.0,0.0,79,0.00,,,0.00,,2013-08-08 04:01:00,
2013-08-07 23:11:00,62.0,55.0,30.08,North,356,0.0,0.0,79,0.00,,,0.00,,2013-08-08 04:11:00,
2013-08-07 23:22:00,61.0,56.0,30.07,North,356,0.0,0.0,83,0.00,,,0.00,,2013-08-08 04:22:00,
2013-08-07 23:33:00,61.0,56.0,30.07,North,356,0.0,0.0,83,0.00,,,0.00,,2013-08-08 04:33:00,
2013-08-07 23:44:00,61.0,56.0,30.07,North,356,0.0,0.0,83,0.00,,,0.00,,2013-08-08 04:44:00,
2013-08-07 23:53:00,60.0,55.0,30.08,North,356,0.0,0.0,85,0.00,,,0.00,,2013-08-08 04:53:00,